Simultaneous Nadir Overpasses (SNOs) Predictions

Prediction of SNOs between METOP-A and NOAA-19 Satellite Orbit:

Table of predicted SNOs for the next 14.0 days since TLE Epoch: 11/7/2015
Index Date (METOP-A) Time (METOP-A) Lat,Lon (METOP-A) SZA (METOP-A ) Date (NOAA-19) Time (NOAA-19) Lat,Lon (NOAA-19) SZA (NOAA-19 ) Distance(km) Time Diff (sec)
1 11/10/2015 15:43:02 75.65, -57.06 92.76 11/10/2015 15:41:50 75.66, -58.01 92.75 26.27 72
2 11/10/2015 16:33:47 -75.51, 109.83 87.38 11/10/2015 16:32:44 -75.52, 109.71 87.38 3.19 63
3 11/10/2015 17:24:27 75.50, -82.89 92.62 11/10/2015 17:23:49 75.50, -83.00 92.62 3.17 38
4 11/10/2015 18:15:10 -75.45, 84.29 87.43 11/10/2015 18:14:45 -75.45, 84.42 87.43 3.38 25
5 11/10/2015 19:05:50 75.43,-108.42 92.57 11/10/2015 19:05:50 75.44,-108.30 92.57 3.41 0
6 11/10/2015 19:56:32 -75.44, 58.91 87.42 11/10/2015 19:56:47 -75.43, 58.97 87.42 1.77 15
7 11/10/2015 20:47:12 75.42,-133.81 92.57 11/10/2015 20:47:52 75.42,-133.75 92.58 1.72 40
8 11/10/2015 21:37:54 -75.42, 33.52 87.42 11/10/2015 21:38:49 -75.41, 33.52 87.42 0.75 55
9 11/10/2015 22:28:39 75.17,-159.91 92.34 11/10/2015 22:29:50 75.21,-158.62 92.40 37.26 71




NCC Satellite Simultaneous Nadir Overpasses (SNOs) Prediction Service
